Regional Weather Roundup
Issued by NWS

Home | Current Version | Previous Version | Graphics & Text | Print | Product List | Glossary On
Versions: 1 2 3 4 5 6 7 8 9 10 11 12 13 14 15 16 17 18 19 20 21 22 23 24 25 26 27 28 29 30 31 32 33 34 35 36 37 38 39 40 41 42 43 44 45 46 47 48 49 50
000
ASUS43 KLMK 160310
RWRKY
KENTUCKY REGIONAL WEATHER ROUNDUP
NATIONAL WEATHER SERVICE LOUISVILLE KY
1000 PM EST MON JAN 15 2018

NOTE "FAIR" INDICATES FEW OR NO CLOUDS BELOW 12,000 FEET
WITH NO SIGNIFICANT WEATHER AND/OR OBSTRUCTIONS TO VISIBILITY.

KYZ001>023-026-027-061>063-070>075-160400-
WESTERN AND SOUTH CENTRAL KENTUCKY

CITY           SKY/WX    TMP DP  RH WIND       PRES   REMARKS
PADUCAH        LGT SNOW  21  16  81 N9        30.49R WCI  11
HENDERSON      FLURRIES  18  10  71 NW8       30.51R WCI   8
OWENSBORO      FLURRIES  18  12  77 N9        30.49R WCI   7
HOPKINSVILLE   LGT SNOW  23  21  93 N15       30.43R BLWGSNOWWCI  10
BOWLING GREEN  LGT SNOW  27  24  89 NW8       30.42R FOG     WCI  19
GLASGOW        CLOUDY    30  28  94 CALM      30.38S
$$

KYZ024-025-028>034-038-045-046-053-160400-
NORTH CENTRAL KENTUCKY

CITY           SKY/WX    TMP DP  RH WIND       PRES   REMARKS
LOUISVILLE/SDF LGT SNOW  21  15  78 NW13      30.44R WCI   9
LOUISVILLE/LOU LGT SNOW  21  17  84 W14G22    30.43R FOG     WCI   8
FORT KNOX      LGT SNOW  20  16  84 W17       30.39R WCI   6
$$

KYZ035>037-039>044-047>052-055>060-089>105-160400-
NORTHEAST KENTUCKY

CITY           SKY/WX    TMP DP  RH WIND       PRES   REMARKS
LEXINGTON      LGT SNOW  29  24  82 W6        30.36R WCI  23
COVINGTON      LGT SNOW  27  26  96 SW7       30.33R FOG     WCI  19
FRANKFORT      LGT SNOW  29  24  82 W8        30.35R WCI  21
$$

KYZ054-064>069-076>088-106>120-160400-
SOUTHEAST KENTUCKY

CITY           SKY/WX    TMP DP  RH WIND       PRES   REMARKS
JACKSON        FLURRIES  33  30  88 VRB3      30.30S
LONDON         MOCLDY    36  27  69 S3        30.32R
SOMERSET       MOCLDY    32  27  80 N6        30.37R WCI  26
MIDDLESBORO    FAIR      30  25  84 CALM      30.35S
MONTICELLO     FAIR      32  28  85 NW7       30.38R WCI  26
$$




USA.gov is the U.S. government's official web portal to all federal, state and local government web resources and services.